sat.trackr.live / text

‹ back to catalog

KORSAT-2

NORAD 62377 · 2024-247A

PAYLOAD ACTIVE UNKNOWN

§ Identity

Operator
Country
SKOR
Launch date
2024-12-21
Launch site
AFWTR
Launch vehicle
Mass (kg)
RCS (m²)

External: N2YO · Heavens-Above · Gunter

§ Orbital elements

Epoch: 2026-05-24T14:23:09.458592Z

Period
96.08 min
Inclination
45.4106°
Eccentricity
0.0001993
Mean motion
14.98710283 rev/d
Perigee alt
569.5 km
Apogee alt
572.3 km
Semi-major
6,949.0 km
B*
1.9723e-4
RAAN
190.0937°
Arg perigee
94.8243°
Mean anomaly
265.2862°
Rev number
7,802

§ Raw data

KORSAT-21 62377U 24247A   26144.59941503  .00002180  00000+0  19723-3 0  99922 62377  45.4106 190.0937 0001993  94.8243 265.2862 14.98710283 78029

JSON: /api/v1/satellites/62377 · /tle

For live sub-satellite position, see the globe view (requires WebGL).

§ Visibility from observer

Set your observer location to see the next 7 days of passes ≥ 10°. The values pass through the URL so the page stays shareable.

No JS? Fill the form by hand. The geolocation button needs JavaScript.